TimePST,TemperatureF,Dew PointF,Humidity,Sea Level PressureIn,VisibilityMPH,Wind Direction,Wind SpeedMPH,Gust SpeedMPH,PrecipitationIn,Events,Conditions,WindDirDegrees,DateUTC
12:15 AM,28.4,26.6,93,30.33,10.0,Calm,Calm,-,N/A,,Clear,0,2013-03-04 08:15:00
12:35 AM,28.4,24.8,86,30.33,10.0,Calm,Calm,-,N/A,,Clear,0,2013-03-04 08:35:00
12:55 AM,28.4,26.6,93,30.33,8.0,Calm,Calm,-,N/A,,Clear,0,2013-03-04 08:55:00
1:15 AM,28.4,24.8,86,30.33,10.0,Calm,Calm,-,N/A,,Clear,0,2013-03-04 09:15:00
1:35 AM,28.4,24.8,86,30.32,1.0,Calm,Calm,-,N/A,,Clear,0,2013-03-04 09:35:00
1:55 AM,26.6,24.8,93,30.32,0.8,Calm,Calm,-,N/A,,Unknown,0,2013-03-04 09:55:00
2:15 AM,28.4,24.8,86,30.32,10.0,Calm,Calm,-,N/A,,Clear,0,2013-03-04 10:15:00
2:35 AM,26.6,21.2,80,30.32,10.0,Calm,Calm,-,N/A,,Clear,0,2013-03-04 10:35:00
2:55 AM,28.4,26.6,93,30.32,10.0,Calm,Calm,-,N/A,,Clear,0,2013-03-04 10:55:00
3:15 AM,28.4,26.6,93,30.31,2.0,Calm,Calm,-,N/A,,Clear,0,2013-03-04 11:15:00
3:35 AM,26.6,21.2,80,30.31,3.0,Calm,Calm,-,N/A,,Clear,0,2013-03-04 11:35:00
4:15 AM,26.6,24.8,93,30.30,10.0,Calm,Calm,-,N/A,,Clear,0,2013-03-04 12:15:00
4:35 AM,26.6,23.0,86,30.30,10.0,Calm,Calm,-,N/A,,Clear,0,2013-03-04 12:35:00
4:55 AM,24.8,21.2,86,30.29,10.0,Calm,Calm,-,N/A,,Clear,0,2013-03-04 12:55:00
5:15 AM,26.6,24.8,93,30.29,3.0,Calm,Calm,-,N/A,,Clear,0,2013-03-04 13:15:00
5:35 AM,26.6,24.8,93,30.29,10.0,Calm,Calm,-,N/A,,Clear,0,2013-03-04 13:35:00
5:55 AM,26.6,24.8,93,30.29,10.0,Calm,Calm,-,N/A,,Clear,0,2013-03-04 13:55:00
6:15 AM,24.8,21.2,86,30.29,10.0,Calm,Calm,-,N/A,,Clear,0,2013-03-04 14:15:00
6:35 AM,24.8,19.4,80,30.28,10.0,Calm,Calm,-,N/A,,Clear,0,2013-03-04 14:35:00
6:55 AM,24.8,23.0,93,30.27,1.0,Calm,Calm,-,N/A,,Clear,0,2013-03-04 14:55:00
7:15 AM,24.8,23.0,93,30.27,0.5,Calm,Calm,-,N/A,,Unknown,0,2013-03-04 15:15:00
7:35 AM,26.6,24.8,93,30.27,10.0,Calm,Calm,-,N/A,,Clear,0,2013-03-04 15:35:00
7:55 AM,28.4,26.6,93,30.27,10.0,Calm,Calm,-,N/A,,Clear,0,2013-03-04 15:55:00
8:15 AM,30.2,28.4,93,30.27,10.0,Calm,Calm,-,N/A,,Clear,0,2013-03-04 16:15:00
8:35 AM,32.0,30.2,93,30.27,10.0,Calm,Calm,-,N/A,,Clear,0,2013-03-04 16:35:00
8:55 AM,33.8,30.2,87,30.27,10.0,Calm,Calm,-,N/A,,Clear,0,2013-03-04 16:55:00
9:15 AM,35.6,32.0,87,30.26,10.0,Calm,Calm,-,N/A,,Clear,0,2013-03-04 17:15:00
9:35 AM,37.4,30.2,75,30.25,10.0,Calm,Calm,-,N/A,,Clear,0,2013-03-04 17:35:00
9:55 AM,39.2,30.2,70,30.25,10.0,Calm,Calm,-,N/A,,Clear,0,2013-03-04 17:55:00
10:15 AM,39.2,32.0,75,30.25,10.0,Calm,Calm,-,N/A,,Clear,0,2013-03-04 18:15:00
10:55 AM,42.8,30.2,61,30.24,10.0,Calm,Calm,-,N/A,,Clear,0,2013-03-04 18:55:00
11:15 AM,44.6,30.2,57,30.22,10.0,Calm,Calm,-,N/A,,Clear,0,2013-03-04 19:15:00
11:35 AM,44.6,30.2,57,30.21,10.0,Calm,Calm,-,N/A,,Clear,0,2013-03-04 19:35:00
11:55 AM,46.4,32.0,57,30.20,10.0,Calm,Calm,-,N/A,,Clear,0,2013-03-04 19:55:00
12:15 PM,48.2,32.0,54,30.19,10.0,Calm,Calm,-,N/A,,Clear,0,2013-03-04 20:15:00
12:35 PM,48.2,30.2,50,30.18,10.0,Calm,Calm,-,N/A,,Clear,0,2013-03-04 20:35:00
12:55 PM,50.0,30.2,47,30.17,10.0,NW,3.5,-,N/A,,Clear,310,2013-03-04 20:55:00
1:15 PM,50.0,32.0,50,30.16,10.0,NW,4.6,-,N/A,,Clear,320,2013-03-04 21:15:00
1:35 PM,51.8,30.2,44,30.14,10.0,North,3.5,-,N/A,,Clear,350,2013-03-04 21:35:00
1:55 PM,51.8,30.2,44,30.13,10.0,NNW,4.6,-,N/A,,Clear,330,2013-03-04 21:55:00
2:15 PM,51.8,32.0,47,30.12,10.0,NNW,8.1,-,N/A,,Clear,330,2013-03-04 22:15:00
2:35 PM,51.8,30.2,44,30.11,10.0,North,6.9,-,N/A,,Clear,350,2013-03-04 22:35:00
2:55 PM,51.8,28.4,41,30.10,10.0,NE,6.9,-,N/A,,Partly Cloudy,50,2013-03-04 22:55:00
3:15 PM,53.6,30.2,41,30.09,10.0,NNE,3.5,-,N/A,,Partly Cloudy,20,2013-03-04 23:15:00
3:35 PM,53.6,28.4,38,30.08,10.0,SE,8.1,-,N/A,,Clear,130,2013-03-04 23:35:00
3:55 PM,53.6,28.4,38,30.07,10.0,East,8.1,-,N/A,,Clear,80,2013-03-04 23:55:00
4:15 PM,53.6,26.6,35,30.06,10.0,East,6.9,-,N/A,,Clear,90,2013-03-05 00:15:00
4:35 PM,53.6,26.6,35,30.05,10.0,SE,8.1,-,N/A,,Clear,140,2013-03-05 00:35:00
4:55 PM,53.6,26.6,35,30.05,10.0,SE,9.2,-,N/A,,Clear,140,2013-03-05 00:55:00
5:15 PM,51.8,26.6,38,30.04,10.0,ESE,6.9,-,N/A,,Clear,120,2013-03-05 01:15:00
5:35 PM,50.0,24.8,37,30.04,10.0,East,4.6,-,N/A,,Clear,100,2013-03-05 01:35:00
5:55 PM,48.2,26.6,43,30.03,10.0,ENE,3.5,-,N/A,,Clear,70,2013-03-05 01:55:00
6:15 PM,46.4,30.2,53,30.03,10.0,Calm,Calm,-,N/A,,Clear,0,2013-03-05 02:15:00
6:35 PM,44.6,28.4,53,30.03,10.0,East,3.5,-,N/A,,Clear,80,2013-03-05 02:35:00
6:55 PM,42.8,26.6,53,30.03,10.0,East,3.5,-,N/A,,Clear,80,2013-03-05 02:55:00
7:15 PM,39.2,26.6,61,30.02,10.0,East,4.6,-,N/A,,Clear,80,2013-03-05 03:15:00
7:35 PM,37.4,28.4,70,30.02,10.0,Calm,Calm,-,N/A,,Clear,0,2013-03-05 03:35:00
7:55 PM,39.2,26.6,61,30.01,10.0,Calm,Calm,-,N/A,,Clear,0,2013-03-05 03:55:00
8:15 PM,41.0,28.4,61,30.01,10.0,Calm,Calm,-,N/A,,Clear,0,2013-03-05 04:15:00
8:35 PM,39.2,28.4,65,30.01,10.0,North,4.6,-,N/A,,Clear,360,2013-03-05 04:35:00
8:55 PM,39.2,26.6,61,30.00,10.0,NNE,5.8,-,N/A,,Clear,20,2013-03-05 04:55:00
9:15 PM,37.4,28.4,70,30.00,10.0,NE,3.5,-,N/A,,Clear,40,2013-03-05 05:15:00
9:35 PM,39.2,28.4,65,30.00,10.0,Calm,Calm,-,N/A,,Clear,0,2013-03-05 05:35:00
9:55 PM,39.2,26.6,61,30.00,10.0,Calm,Calm,-,N/A,,Clear,0,2013-03-05 05:55:00
10:15 PM,37.4,28.4,70,30.00,10.0,Calm,Calm,-,N/A,,Clear,0,2013-03-05 06:15:00
11:35 PM,37.4,26.6,65,29.97,10.0,Calm,Calm,-,N/A,,Clear,0,2013-03-05 07:35:00
11:55 PM,35.6,26.6,70,29.97,10.0,Calm,Calm,-,N/A,,Clear,0,2013-03-05 07:55:00